Year,Month,Day,Hour,Minute,Value (Times are PST for windspeed in km/hr)
2009,07,26,00,00,0.00
2009,07,26,00,01,0.00
2009,07,26,00,02,0.00
2009,07,26,00,03,0.40
2009,07,26,00,04,0.30
2009,07,26,00,05,0.00
2009,07,26,00,06,0.00
2009,07,26,00,07,0.00
2009,07,26,00,08,0.10
2009,07,26,00,09,0.00
2009,07,26,00,10,0.30
2009,07,26,00,11,0.20
2009,07,26,00,12,0.00
2009,07,26,00,13,0.00
2009,07,26,00,14,0.00
2009,07,26,00,15,0.00
2009,07,26,00,16,0.00
2009,07,26,00,17,0.10
2009,07,26,00,18,0.00
2009,07,26,00,19,0.00
2009,07,26,00,20,0.00
2009,07,26,00,21,0.00
2009,07,26,00,22,0.00
2009,07,26,00,23,0.00
2009,07,26,00,24,0.00
2009,07,26,00,25,0.00
2009,07,26,00,26,0.00
2009,07,26,00,27,0.00
2009,07,26,00,28,0.00
2009,07,26,00,29,0.00
2009,07,26,00,30,0.30
2009,07,26,00,31,0.40
2009,07,26,00,32,0.10
2009,07,26,00,33,0.20
2009,07,26,00,34,0.90
2009,07,26,00,35,0.60
2009,07,26,00,36,0.00
2009,07,26,00,37,0.20
2009,07,26,00,38,0.90
2009,07,26,00,39,0.20
2009,07,26,00,40,0.00
2009,07,26,00,41,0.00
2009,07,26,00,42,0.00
2009,07,26,00,43,0.00
2009,07,26,00,44,0.00
2009,07,26,00,45,0.00
2009,07,26,00,46,0.00
2009,07,26,00,47,0.00
2009,07,26,00,48,0.00
2009,07,26,00,49,0.00
2009,07,26,00,50,0.30
2009,07,26,00,51,1.80
2009,07,26,00,52,1.80
2009,07,26,00,53,1.50
2009,07,26,00,54,0.10
2009,07,26,00,55,0.00
2009,07,26,00,56,0.00
2009,07,26,00,57,0.00
2009,07,26,00,58,0.90
2009,07,26,00,59,0.00
2009,07,26,01,00,0.00
2009,07,26,01,01,0.10
2009,07,26,01,02,0.00
2009,07,26,01,03,0.00
2009,07,26,01,04,0.00
2009,07,26,01,05,3.40
2009,07,26,01,06,4.70
2009,07,26,01,07,0.80
2009,07,26,01,08,0.00
2009,07,26,01,09,0.00
2009,07,26,01,10,0.10
2009,07,26,01,11,0.80
2009,07,26,01,12,2.30
2009,07,26,01,13,0.70
2009,07,26,01,14,2.70
2009,07,26,01,15,3.60
2009,07,26,01,16,1.80
2009,07,26,01,17,3.00
2009,07,26,01,18,4.20
2009,07,26,01,19,2.00
2009,07,26,01,20,2.30
2009,07,26,01,21,1.90
2009,07,26,01,22,2.50
2009,07,26,01,23,4.50
2009,07,26,01,24,2.00
2009,07,26,01,25,0.90
2009,07,26,01,26,1.10
2009,07,26,01,27,1.90
2009,07,26,01,28,0.70
2009,07,26,01,29,0.40
2009,07,26,01,30,0.00
2009,07,26,01,31,0.00
2009,07,26,01,32,0.00
2009,07,26,01,33,0.20
2009,07,26,01,34,1.60
2009,07,26,01,35,4.00
2009,07,26,01,36,2.90
2009,07,26,01,37,3.50
2009,07,26,01,38,2.00
2009,07,26,01,39,0.00
2009,07,26,01,40,0.00
2009,07,26,01,41,0.60
2009,07,26,01,42,0.10
2009,07,26,01,43,0.40
2009,07,26,01,44,0.00
2009,07,26,01,45,0.00
2009,07,26,01,46,0.00
2009,07,26,01,47,0.10
2009,07,26,01,48,0.00
2009,07,26,01,49,0.00
2009,07,26,01,50,0.10
2009,07,26,01,51,0.90
2009,07,26,01,52,1.60
2009,07,26,01,53,0.80
2009,07,26,01,54,1.90
2009,07,26,01,55,2.60
2009,07,26,01,56,2.00
2009,07,26,01,57,3.80
2009,07,26,01,58,3.40
2009,07,26,01,59,3.70
2009,07,26,02,00,4.00
2009,07,26,02,01,3.40
2009,07,26,02,02,4.10
2009,07,26,02,03,5.30
2009,07,26,02,04,5.30
2009,07,26,02,05,4.80
2009,07,26,02,06,4.80
2009,07,26,02,07,2.60
2009,07,26,02,08,3.00
2009,07,26,02,09,3.50
2009,07,26,02,10,4.60
2009,07,26,02,11,5.60
2009,07,26,02,12,4.70
2009,07,26,02,13,4.50
2009,07,26,02,14,3.00
2009,07,26,02,15,3.00
2009,07,26,02,16,4.20
2009,07,26,02,17,4.20
2009,07,26,02,18,3.10
2009,07,26,02,19,3.60
2009,07,26,02,20,4.10
2009,07,26,02,21,4.10
2009,07,26,02,22,3.00
2009,07,26,02,23,2.80
2009,07,26,02,24,2.30
2009,07,26,02,25,0.90
2009,07,26,02,26,0.50
2009,07,26,02,27,0.00
2009,07,26,02,28,0.00
2009,07,26,02,29,0.00
2009,07,26,02,30,0.10
2009,07,26,02,31,1.60
2009,07,26,02,32,4.00
2009,07,26,02,33,5.90
2009,07,26,02,34,5.50
2009,07,26,02,35,5.40
2009,07,26,02,36,5.90
2009,07,26,02,37,1.90
2009,07,26,02,38,0.10
2009,07,26,02,39,0.00
2009,07,26,02,40,0.10
2009,07,26,02,41,0.00
2009,07,26,02,42,0.60
2009,07,26,02,43,3.90
2009,07,26,02,44,6.90
2009,07,26,02,45,7.00
2009,07,26,02,46,5.60
2009,07,26,02,47,4.90
2009,07,26,02,48,3.80
2009,07,26,02,49,5.00
2009,07,26,02,50,4.00
2009,07,26,02,51,6.50
2009,07,26,02,52,6.20
2009,07,26,02,53,4.60
2009,07,26,02,54,5.60
2009,07,26,02,55,5.90
2009,07,26,02,56,3.30
2009,07,26,02,57,6.10
2009,07,26,02,58,4.00
2009,07,26,02,59,4.70
2009,07,26,03,00,1.10
2009,07,26,03,01,0.20
2009,07,26,03,02,3.30
2009,07,26,03,03,5.10
2009,07,26,03,04,7.20
2009,07,26,03,05,5.60
2009,07,26,03,06,6.10
2009,07,26,03,07,2.10
2009,07,26,03,08,0.10
2009,07,26,03,09,0.60
2009,07,26,03,10,0.10
2009,07,26,03,11,0.10
2009,07,26,03,12,1.00
2009,07,26,03,13,0.70
2009,07,26,03,14,0.00
2009,07,26,03,15,0.20
2009,07,26,03,16,0.00
2009,07,26,03,17,0.00
2009,07,26,03,18,0.00
2009,07,26,03,19,0.30
2009,07,26,03,20,0.00
2009,07,26,03,21,0.00
2009,07,26,03,22,0.00
2009,07,26,03,23,0.00
2009,07,26,03,24,0.00
2009,07,26,03,25,0.00
2009,07,26,03,26,0.00
2009,07,26,03,27,0.00
2009,07,26,03,28,0.00
2009,07,26,03,29,0.00
2009,07,26,03,30,0.00
2009,07,26,03,31,0.00
2009,07,26,03,32,0.10
2009,07,26,03,33,0.40
2009,07,26,03,34,2.40
2009,07,26,03,35,0.40
2009,07,26,03,36,0.00
2009,07,26,03,37,0.00
2009,07,26,03,38,0.00
2009,07,26,03,39,0.00
2009,07,26,03,40,0.20
2009,07,26,03,41,0.00
2009,07,26,03,42,0.00
2009,07,26,03,43,0.00
2009,07,26,03,44,0.00
2009,07,26,03,45,0.00
2009,07,26,03,46,0.00
2009,07,26,03,47,0.00
2009,07,26,03,48,0.00
2009,07,26,03,49,0.00
2009,07,26,03,50,0.00
2009,07,26,03,51,0.00
2009,07,26,03,52,0.00
2009,07,26,03,53,0.00
2009,07,26,03,54,0.00
2009,07,26,03,55,0.00
2009,07,26,03,56,0.00
2009,07,26,03,57,0.00
2009,07,26,03,58,0.00
2009,07,26,03,59,0.00
2009,07,26,04,00,0.00
2009,07,26,04,01,0.00
2009,07,26,04,02,0.00
2009,07,26,04,03,0.00
2009,07,26,04,04,0.00
2009,07,26,04,05,0.00
2009,07,26,04,06,0.00
2009,07,26,04,07,0.30
2009,07,26,04,08,0.60
2009,07,26,04,09,0.40
2009,07,26,04,10,0.00
2009,07,26,04,11,0.00
2009,07,26,04,12,0.00
2009,07,26,04,13,0.00
2009,07,26,04,14,0.00
2009,07,26,04,15,0.00
2009,07,26,04,16,0.00
2009,07,26,04,17,0.00
2009,07,26,04,18,0.00
2009,07,26,04,19,0.00
2009,07,26,04,20,0.00
2009,07,26,04,21,0.00
2009,07,26,04,22,0.00
2009,07,26,04,23,0.00
2009,07,26,04,24,0.00
2009,07,26,04,25,0.00
2009,07,26,04,26,0.00
2009,07,26,04,27,0.00
2009,07,26,04,28,0.00
2009,07,26,04,29,0.00
2009,07,26,04,30,0.00
2009,07,26,04,31,0.00
2009,07,26,04,32,0.00
2009,07,26,04,33,0.00
2009,07,26,04,34,0.00
2009,07,26,04,35,0.00
2009,07,26,04,36,0.00
2009,07,26,04,37,0.00
2009,07,26,04,38,0.00
2009,07,26,04,39,0.00
2009,07,26,04,40,0.30
2009,07,26,04,41,0.00
2009,07,26,04,42,0.00
2009,07,26,04,43,0.00
2009,07,26,04,44,0.00
2009,07,26,04,45,0.00
2009,07,26,04,46,0.00
2009,07,26,04,47,0.00
2009,07,26,04,48,0.00
2009,07,26,04,49,0.00
2009,07,26,04,50,0.00
2009,07,26,04,51,0.00
2009,07,26,04,52,0.00
2009,07,26,04,53,0.00
2009,07,26,04,54,0.00
2009,07,26,04,55,0.00
2009,07,26,04,56,0.00
2009,07,26,04,57,0.00
2009,07,26,04,58,0.00
2009,07,26,04,59,0.00
2009,07,26,05,00,0.00
2009,07,26,05,01,0.00
2009,07,26,05,02,0.00
2009,07,26,05,03,0.00
2009,07,26,05,04,0.00
2009,07,26,05,05,0.00
2009,07,26,05,06,0.00
2009,07,26,05,07,0.00
2009,07,26,05,08,0.00
2009,07,26,05,09,0.00
2009,07,26,05,10,0.00
2009,07,26,05,11,0.20
2009,07,26,05,12,0.00
2009,07,26,05,13,0.10
2009,07,26,05,14,0.90
2009,07,26,05,15,0.00
2009,07,26,05,16,0.10
2009,07,26,05,17,0.60
2009,07,26,05,18,0.30
2009,07,26,05,19,1.10
2009,07,26,05,20,1.60
2009,07,26,05,21,1.90
2009,07,26,05,22,0.80
2009,07,26,05,23,1.30
2009,07,26,05,24,3.50
2009,07,26,05,25,2.90
2009,07,26,05,26,0.50
2009,07,26,05,27,0.10
2009,07,26,05,28,0.30
2009,07,26,05,29,0.10
2009,07,26,05,30,0.00
2009,07,26,05,31,0.40
2009,07,26,05,32,0.50
2009,07,26,05,33,0.00
2009,07,26,05,34,0.00
2009,07,26,05,35,0.00
2009,07,26,05,36,0.00
2009,07,26,05,37,0.00
2009,07,26,05,38,0.30
2009,07,26,05,39,1.00
2009,07,26,05,40,0.90
2009,07,26,05,41,1.40
2009,07,26,05,42,0.10
2009,07,26,05,43,0.00
2009,07,26,05,44,1.90
2009,07,26,05,45,2.90
2009,07,26,05,46,1.40
2009,07,26,05,47,0.20
2009,07,26,05,48,0.00
2009,07,26,05,49,0.00
2009,07,26,05,50,0.00
2009,07,26,05,51,0.00
2009,07,26,05,52,1.90
2009,07,26,05,53,1.90
2009,07,26,05,54,4.80
2009,07,26,05,55,4.10
2009,07,26,05,56,4.70
2009,07,26,05,57,6.20
2009,07,26,05,58,4.00
2009,07,26,05,59,4.10
2009,07,26,06,00,2.50
2009,07,26,06,01,2.30
2009,07,26,06,02,3.90
2009,07,26,06,03,4.10
2009,07,26,06,04,4.90
2009,07,26,06,05,4.60
2009,07,26,06,06,3.80
2009,07,26,06,07,3.60
2009,07,26,06,08,2.60
2009,07,26,06,09,0.40
2009,07,26,06,10,0.60
2009,07,26,06,11,0.20
2009,07,26,06,12,0.10
2009,07,26,06,13,0.00
2009,07,26,06,14,0.00
2009,07,26,06,15,0.80
2009,07,26,06,16,0.00
2009,07,26,06,17,0.00
2009,07,26,06,18,0.00
2009,07,26,06,19,0.30
2009,07,26,06,20,0.00
2009,07,26,06,21,0.00
2009,07,26,06,22,0.00
2009,07,26,06,23,0.20
2009,07,26,06,24,0.00
2009,07,26,06,25,0.00
2009,07,26,06,26,0.30
2009,07,26,06,27,0.40
2009,07,26,06,28,0.40
2009,07,26,06,29,0.00
2009,07,26,06,30,0.00
2009,07,26,06,31,0.00
2009,07,26,06,32,0.00
2009,07,26,06,33,0.00
2009,07,26,06,34,0.20
2009,07,26,06,35,0.00
2009,07,26,06,36,0.00
2009,07,26,06,37,0.00
2009,07,26,06,38,0.00
2009,07,26,06,39,0.00
2009,07,26,06,40,0.00
2009,07,26,06,41,0.00
2009,07,26,06,42,0.00
2009,07,26,06,43,0.00
2009,07,26,06,44,0.00
2009,07,26,06,45,0.00
2009,07,26,06,46,0.00
2009,07,26,06,47,0.00
2009,07,26,06,48,0.00
2009,07,26,06,49,0.00
2009,07,26,06,50,0.00
2009,07,26,06,51,0.00
2009,07,26,06,52,0.00
2009,07,26,06,53,0.00
2009,07,26,06,54,0.00
2009,07,26,06,55,0.00
2009,07,26,06,56,0.00
2009,07,26,06,57,0.00
2009,07,26,06,58,0.00
2009,07,26,06,59,0.00
2009,07,26,07,00,0.60
2009,07,26,07,01,0.30
2009,07,26,07,02,0.00
2009,07,26,07,03,0.00
2009,07,26,07,04,0.00
2009,07,26,07,05,0.00
2009,07,26,07,06,0.00
2009,07,26,07,07,0.00
2009,07,26,07,08,0.00
2009,07,26,07,09,0.00
2009,07,26,07,10,0.00
2009,07,26,07,11,0.00
2009,07,26,07,12,0.00
2009,07,26,07,13,0.00
2009,07,26,07,14,0.00
2009,07,26,07,15,0.00
2009,07,26,07,16,0.00
2009,07,26,07,17,0.00
2009,07,26,07,18,0.00
2009,07,26,07,19,0.00
2009,07,26,07,20,0.00
2009,07,26,07,21,0.00
2009,07,26,07,22,0.00
2009,07,26,07,23,0.00
2009,07,26,07,24,0.00
2009,07,26,07,25,0.00
2009,07,26,07,26,0.00
2009,07,26,07,27,0.00
2009,07,26,07,28,0.00
2009,07,26,07,29,0.00
2009,07,26,07,30,0.00
2009,07,26,07,31,0.00
2009,07,26,07,32,0.70
2009,07,26,07,33,0.10
2009,07,26,07,34,0.00
2009,07,26,07,35,0.00
2009,07,26,07,36,0.00
2009,07,26,07,37,0.00
2009,07,26,07,38,0.00
2009,07,26,07,39,0.00
2009,07,26,07,40,0.00
2009,07,26,07,41,0.00
2009,07,26,07,42,0.10
2009,07,26,07,43,0.10
2009,07,26,07,44,0.00
2009,07,26,07,45,0.80
2009,07,26,07,46,0.20
2009,07,26,07,47,0.00
2009,07,26,07,48,0.00
2009,07,26,07,49,0.00
2009,07,26,07,50,0.00
2009,07,26,07,51,0.00
2009,07,26,07,52,0.00
2009,07,26,07,53,0.00
2009,07,26,07,54,0.00
2009,07,26,07,55,0.00
2009,07,26,07,56,0.00
2009,07,26,07,57,0.00
2009,07,26,07,58,0.00
2009,07,26,07,59,0.00
2009,07,26,08,00,0.00
2009,07,26,08,01,0.00
2009,07,26,08,02,0.00
2009,07,26,08,03,0.00
2009,07,26,08,04,0.00
2009,07,26,08,05,0.00
2009,07,26,08,06,0.00
2009,07,26,08,07,0.40
2009,07,26,08,08,0.80
2009,07,26,08,09,0.60
2009,07,26,08,10,0.50
2009,07,26,08,11,0.30
2009,07,26,08,12,0.30
2009,07,26,08,13,0.00
2009,07,26,08,14,0.00
2009,07,26,08,15,0.00
2009,07,26,08,16,0.00
2009,07,26,08,17,0.30
2009,07,26,08,18,0.20
2009,07,26,08,19,0.30
2009,07,26,08,20,0.10
2009,07,26,08,21,0.00
2009,07,26,08,22,0.00
2009,07,26,08,23,0.00
2009,07,26,08,24,0.20
2009,07,26,08,25,0.20
2009,07,26,08,26,0.00
2009,07,26,08,27,0.00
2009,07,26,08,28,0.00
2009,07,26,08,29,0.00
2009,07,26,08,30,0.00
2009,07,26,08,31,0.00
2009,07,26,08,32,0.00
2009,07,26,08,33,0.00
2009,07,26,08,34,0.00
2009,07,26,08,35,0.00
2009,07,26,08,36,0.00
2009,07,26,08,37,0.00
2009,07,26,08,38,0.00
2009,07,26,08,39,0.30
2009,07,26,08,40,0.70
2009,07,26,08,41,0.00
2009,07,26,08,42,0.10
2009,07,26,08,43,0.00
2009,07,26,08,44,0.00
2009,07,26,08,45,0.00
2009,07,26,08,46,0.00
2009,07,26,08,47,2.10
2009,07,26,08,48,3.30
2009,07,26,08,49,3.10
2009,07,26,08,50,3.30
2009,07,26,08,51,4.20
2009,07,26,08,52,4.40
2009,07,26,08,53,2.80
2009,07,26,08,54,3.60
2009,07,26,08,55,5.30
2009,07,26,08,56,4.40
2009,07,26,08,57,3.80
2009,07,26,08,58,2.70
2009,07,26,08,59,3.00
2009,07,26,09,00,2.70
2009,07,26,09,01,1.60
2009,07,26,09,02,2.50
2009,07,26,09,03,0.40
2009,07,26,09,04,0.60
2009,07,26,09,05,0.40
2009,07,26,09,06,0.30
2009,07,26,09,07,0.20
2009,07,26,09,08,0.10
2009,07,26,09,09,0.00
2009,07,26,09,10,0.00
2009,07,26,09,11,0.00
2009,07,26,09,12,0.00
2009,07,26,09,13,0.30
2009,07,26,09,14,0.50
2009,07,26,09,15,0.00
2009,07,26,09,16,0.00
2009,07,26,09,17,0.50
2009,07,26,09,18,0.00
2009,07,26,09,19,0.10
2009,07,26,09,20,0.40
2009,07,26,09,21,1.30
2009,07,26,09,22,0.60
2009,07,26,09,23,0.10
2009,07,26,09,24,1.20
2009,07,26,09,25,0.40
2009,07,26,09,26,0.10
2009,07,26,09,27,0.20
2009,07,26,09,28,0.90
2009,07,26,09,29,0.20
2009,07,26,09,30,1.60
2009,07,26,09,31,0.00
2009,07,26,09,32,0.00
2009,07,26,09,33,0.00
2009,07,26,09,34,0.30
2009,07,26,09,35,0.90
2009,07,26,09,36,0.00
2009,07,26,09,37,0.00
2009,07,26,09,38,0.30
2009,07,26,09,39,1.00
2009,07,26,09,40,0.40
2009,07,26,09,41,1.50
2009,07,26,09,42,1.50
2009,07,26,09,43,0.90
2009,07,26,09,44,1.10
2009,07,26,09,45,1.40
2009,07,26,09,46,2.00
2009,07,26,09,47,1.10
2009,07,26,09,48,0.80
2009,07,26,09,49,2.80
2009,07,26,09,50,3.00
2009,07,26,09,51,1.60
2009,07,26,09,52,0.80
2009,07,26,09,53,1.30
2009,07,26,09,54,1.50
2009,07,26,09,55,1.30
2009,07,26,09,56,1.50
2009,07,26,09,57,4.30
2009,07,26,09,58,3.00
2009,07,26,09,59,3.20
2009,07,26,10,00,3.10
2009,07,26,10,01,1.70
2009,07,26,10,02,0.70
2009,07,26,10,03,0.70
2009,07,26,10,04,0.00
2009,07,26,10,05,1.50
2009,07,26,10,06,1.60
2009,07,26,10,07,0.20
2009,07,26,10,08,0.40
2009,07,26,10,09,1.40
2009,07,26,10,10,0.70
2009,07,26,10,11,0.00
2009,07,26,10,12,0.90
2009,07,26,10,17,5.10
2009,07,26,10,18,2.10
2009,07,26,10,19,1.10
2009,07,26,10,20,2.10
2009,07,26,10,21,1.20
2009,07,26,10,22,2.80
2009,07,26,10,23,2.40
2009,07,26,10,24,1.10
2009,07,26,10,25,1.40
2009,07,26,10,26,1.40
2009,07,26,10,27,2.40
2009,07,26,10,28,2.30
2009,07,26,10,29,6.00
2009,07,26,10,30,1.80
2009,07,26,10,31,1.50
2009,07,26,10,32,2.10
2009,07,26,10,33,4.90
2009,07,26,10,34,0.60
2009,07,26,10,35,2.90
2009,07,26,10,36,4.60
2009,07,26,10,37,2.30
2009,07,26,10,38,5.00
2009,07,26,10,39,4.30
2009,07,26,10,40,3.30
2009,07,26,10,41,3.40
2009,07,26,10,42,1.70
2009,07,26,10,43,1.40
2009,07,26,10,44,2.50
2009,07,26,10,45,2.00
2009,07,26,10,46,1.90
2009,07,26,10,47,2.70
2009,07,26,10,48,4.40
2009,07,26,10,49,5.30
2009,07,26,10,50,2.90
2009,07,26,10,51,4.40
2009,07,26,10,52,5.00
2009,07,26,10,53,3.90
2009,07,26,10,54,3.70
2009,07,26,10,55,0.90
2009,07,26,10,56,2.40
2009,07,26,10,57,2.70
2009,07,26,10,58,0.20
2009,07,26,10,59,0.50
2009,07,26,11,00,1.10
2009,07,26,11,01,3.20
2009,07,26,11,02,2.50
2009,07,26,11,03,0.70
2009,07,26,11,04,2.80
2009,07,26,11,05,2.10
2009,07,26,11,06,2.30
2009,07,26,11,07,2.70
2009,07,26,11,08,0.50
2009,07,26,11,09,4.40
2009,07,26,11,10,3.70
2009,07,26,11,11,1.50
2009,07,26,11,12,4.50
2009,07,26,11,13,3.40
2009,07,26,11,14,2.40
2009,07,26,11,15,2.70
2009,07,26,11,16,3.00
2009,07,26,11,17,2.80
2009,07,26,11,18,2.50
2009,07,26,11,19,0.60
2009,07,26,11,20,1.20
2009,07,26,11,21,0.10
2009,07,26,11,22,2.40
2009,07,26,11,23,2.90
2009,07,26,11,24,1.30
2009,07,26,11,25,0.20
2009,07,26,11,26,0.20
2009,07,26,11,27,0.20
2009,07,26,11,28,1.10
2009,07,26,11,29,3.40
2009,07,26,11,30,1.50
2009,07,26,11,31,1.90
2009,07,26,11,32,0.30
2009,07,26,11,33,0.00
2009,07,26,11,34,0.60
2009,07,26,11,35,0.90
2009,07,26,11,36,0.60
2009,07,26,11,37,0.20
2009,07,26,11,38,0.20
2009,07,26,11,39,2.50
2009,07,26,11,40,1.30
2009,07,26,11,41,1.50
2009,07,26,11,42,1.50
2009,07,26,11,43,1.40
2009,07,26,11,44,0.60
2009,07,26,11,45,1.10
2009,07,26,11,46,2.20
2009,07,26,11,47,2.10
2009,07,26,11,48,4.90
2009,07,26,11,49,2.00
2009,07,26,11,50,1.40
2009,07,26,11,51,0.70
2009,07,26,11,52,0.70
2009,07,26,11,53,2.60
2009,07,26,11,54,0.20
2009,07,26,11,55,0.30
2009,07,26,11,56,0.20
2009,07,26,11,57,0.50
2009,07,26,11,58,1.10
2009,07,26,11,59,0.80
2009,07,26,12,00,0.10
2009,07,26,12,01,1.00
2009,07,26,12,02,0.70
2009,07,26,12,03,2.50
2009,07,26,12,04,1.50
2009,07,26,12,05,1.90
2009,07,26,12,06,0.30
2009,07,26,12,07,0.20
2009,07,26,12,08,0.20
2009,07,26,12,09,0.70
2009,07,26,12,10,0.30
2009,07,26,12,11,1.10
2009,07,26,12,12,1.20
2009,07,26,12,13,0.80
2009,07,26,12,14,0.90
2009,07,26,12,15,1.30
2009,07,26,12,16,2.00
2009,07,26,12,17,2.40
2009,07,26,12,18,4.00
2009,07,26,12,19,3.70
2009,07,26,12,20,0.70
2009,07,26,12,21,1.20
2009,07,26,12,22,5.80
2009,07,26,12,23,0.90
2009,07,26,12,24,1.90
2009,07,26,12,25,1.40
2009,07,26,12,26,0.70
2009,07,26,12,27,1.50
2009,07,26,12,28,3.50
2009,07,26,12,29,3.90
2009,07,26,12,30,3.40
2009,07,26,12,31,1.80
2009,07,26,12,32,3.10
2009,07,26,12,33,4.00
2009,07,26,12,34,3.10
2009,07,26,12,35,1.90
2009,07,26,12,36,3.80
2009,07,26,12,37,1.00
2009,07,26,12,38,1.80
2009,07,26,12,39,2.10
2009,07,26,12,40,2.10
2009,07,26,12,41,2.40
2009,07,26,12,42,1.80
2009,07,26,12,43,2.70
2009,07,26,12,44,0.90
2009,07,26,12,45,1.40
2009,07,26,12,46,3.40
2009,07,26,12,47,3.80
2009,07,26,12,48,1.80
2009,07,26,12,49,0.20
2009,07,26,12,50,2.70
2009,07,26,12,51,2.70
2009,07,26,12,52,1.90
2009,07,26,12,53,2.70
2009,07,26,12,54,0.60
2009,07,26,12,55,0.00
2009,07,26,12,56,0.00
2009,07,26,12,57,1.10
2009,07,26,12,58,0.70
2009,07,26,12,59,0.30
2009,07,26,13,00,0.50
2009,07,26,13,01,1.50
2009,07,26,13,02,0.30
2009,07,26,13,03,0.60
2009,07,26,13,04,0.20
2009,07,26,13,05,0.50
2009,07,26,13,06,0.60
2009,07,26,13,07,1.10
2009,07,26,13,08,0.30
2009,07,26,13,09,1.10
2009,07,26,13,10,0.00
2009,07,26,13,11,0.10
2009,07,26,13,12,0.50
2009,07,26,13,13,1.50
2009,07,26,13,14,0.50
2009,07,26,13,15,0.30
2009,07,26,13,16,0.80
2009,07,26,13,17,1.80
2009,07,26,13,18,0.20
2009,07,26,13,19,2.50
2009,07,26,13,20,0.60
2009,07,26,13,21,1.70
2009,07,26,13,22,2.80
2009,07,26,13,23,1.20
2009,07,26,13,24,3.00
2009,07,26,13,25,2.50
2009,07,26,13,26,1.10
2009,07,26,13,27,2.20
2009,07,26,13,28,0.70
2009,07,26,13,29,1.50
2009,07,26,13,30,1.00
2009,07,26,13,31,1.70
2009,07,26,13,32,1.50
2009,07,26,13,33,2.50
2009,07,26,13,34,1.80
2009,07,26,13,35,2.70
2009,07,26,13,36,1.00
2009,07,26,13,37,0.30
2009,07,26,13,38,2.00
2009,07,26,13,39,0.70
2009,07,26,13,40,1.30
2009,07,26,13,41,2.50
2009,07,26,13,42,2.00
2009,07,26,13,43,2.10
2009,07,26,13,44,0.90
2009,07,26,13,45,0.70
2009,07,26,13,46,0.40
